This is the latest recevied weather packets stored in our database for station/object K6CED. If no packets are shown the sender has not sent any weather packets the latest 10 day(s).
| Time | Temp. | Humidity | Pressure | Rain* | Wind** | Luminosity | Snow |
|---|---|---|---|---|---|---|---|
| 1777998058 | 14.44° C | 77% | 1016.5 hPa | 0 mm | - | 237 W/m² | - |
| 1777997755 | 13.89° C | 77% | 1016.6 hPa | 0 mm | - | 380 W/m² | - |
| 1777997452 | 13.89° C | 78% | 1016.6 hPa | 0 mm | - | 289 W/m² | - |
| 1777997150 | 13.89° C | 78% | 1016.3 hPa | 0 mm | - | 269 W/m² | - |
| 1777996847 | 13.89° C | 81% | 1016.6 hPa | 0 mm | - | 288 W/m² | - |
| 1777996543 | 13.89° C | 82% | 1016.3 hPa | 0 mm | - | 260 W/m² | - |
| 1777996239 | 13.89° C | 82% | 1016.4 hPa | 0 mm | - | 297 W/m² | - |
| 1777995936 | 13.89° C | 82% | 1016.4 hPa | 0 mm | - | 386 W/m² | - |
| 1777995632 | 13.33° C | 84% | 1016.7 hPa | 0 mm | - | 410 W/m² | - |
| 1777995330 | 13.33° C | 86% | 1016.4 hPa | 0 mm | - | 326 W/m² | - |
| 1777995026 | 13.33° C | 88% | 1016.3 hPa | 0 mm | - | 264 W/m² | - |
| 1777994723 | 12.78° C | 88% | 1016.4 hPa | 0 mm | - | 233 W/m² | - |
| 1777994419 | 13.33° C | 88% | 1016.3 hPa | 0 mm | - | 233 W/m² | - |
| 1777994114 | 13.33° C | 88% | 1016.3 hPa | 0 mm | - | 179 W/m² | - |
| 1777993812 | 13.33° C | 87% | 1016.3 hPa | 0 mm | - | 317 W/m² | - |
| 1777993508 | 12.78° C | 87% | 1016.1 hPa | 0 mm | - | 215 W/m² | - |
| 1777993204 | 12.78° C | 88% | 1016.1 hPa | 0 mm | - | 174 W/m² | - |
| 1777992901 | 12.22° C | 92% | 1016 hPa | 0 mm | - | 171 W/m² | - |
| 1777992599 | 11.67° C | 95% | 1016.2 hPa | 0 mm | - | 188 W/m² | - |
| 1777992296 | 11.67° C | 96% | 1016.2 hPa | 0 mm | - | 146 W/m² | - |
| 1777991994 | 11.11° C | 97% | 1016.1 hPa | 0 mm | - | 129 W/m² | - |
| 1777991691 | 11.11° C | 98% | 1015.8 hPa | 0 mm | - | 121 W/m² | - |
| 1777991388 | 11.67° C | 98% | 1016 hPa | 0 mm | - | 104 W/m² | - |
| 1777991086 | 11.67° C | 98% | 1016 hPa | 0 mm | - | 85 W/m² | - |
| 1777990783 | 11.67° C | 98% | 1015.7 hPa | 0 mm | - | 61 W/m² | - |
* Rain latest hour (hover to see other rain measurements)
** Current wind speed in m/s (hover to see current wind gust speed)